ROMMA est une association bénévole à but non lucratif. Votre soutien est indispensable : ADHERER à ROMMA ou FAIRE un DON

Voiron - (38, Isère)

Voironnais (300 m)   Longitude: 05° 35' E   Latitude: 45° 23' N Station partenaire n°109
 

Détail journalier du     <<     >>

Température Precipitation Humidité Pression Vent Dir Rafale Dir. rafale Ensol.
Heure (°C) (mm) (%) (hPa) (km/h) (km/h) (min)
01:00 26.107110222OSO11SSE0
02:00 25.407310222ENE10E0
03:00 24.707710222SSE10N0
04:00 23.7079102203SSE0
05:00 23.008110222SSE5SSE0
06:00 22.608310222N6NNO0
07:00 23.407910222ONO10NO0
08:00 25.807310222NNE8SSE60
09:00 27.606710223SE10SSE60
10:00 28.706210223SE11SSO60
11:00 29.805610226SSO11S60
12:00 31.705210224SSO13SO60
13:00 32.905110216S13S60
14:00 33.805010206S15S60
15:00 35.405010205SSO11SSO60
16:00 36.105110195SSO13OSO60
17:00 36.804810186SO13OSO60
18:00 37.804110189N24N60
19:00 37.2046101712N24NNO60
20:00 36.405410177N18N60
21:00 32.806610186NNO13NNO60
22:00 31.306910182ONO10ONO0
23:00 29.707310182NO5NO0
minuit 28.607710181OSO6OSO0

Graphique du 27-06-2019

 

Serveur OMMA